Stations météo

réclame
Mon MeteoGroup
Freiburg, Allemagne (10803): Température de l'air & dewpoint: 10.12.2019 01:00:00 - 16.12.2019 01:00:00 (CET)Freiburg, Allemagne (10803): Température de l'air 5cm & Température de l'air -5cm: 10.12.2019 01:00:00 - 16.12.2019 01:00:00 (CET)Freiburg, Allemagne (10803): Température de l'air -20cm & Température de l'air -100cm: 10.12.2019 01:00:00 - 16.12.2019 01:00:00 (CET)Freiburg, Allemagne (10803): Vitesse du vent & gusts: 10.12.2019 01:00:00 - 16.12.2019 01:00:00 (CET)Freiburg, Allemagne (10803): Direction du vent: 10.12.2019 01:00:00 - 16.12.2019 01:00:00 (CET)Freiburg, Allemagne (10803): reduced air pressure: 10.12.2019 01:00:00 - 16.12.2019 01:00:00 (CET)Freiburg, Allemagne (10803): visibility: 10.12.2019 01:00:00 - 16.12.2019 01:00:00 (CET)Freiburg, Allemagne (10803): Ensoleillement: 10.12.2019 01:00:00 - 16.12.2019 01:00:00 (CET)Freiburg, Allemagne (10803): Quantités de précipitations: 10.12.2019 01:00:00 - 16.12.2019 01:00:00 (CET)
Date & Time tt [°C] td [°C] tt 5cm [°C] tt -5cm [°C] tt -20cm [°C] tt -100cm [°C] ff [km/h] ff [knt] fx [km/h] fx [knt] dd ppp [hPa] vv [km] sd [min] rr [mm]
16.12.2019 01:00:00 7,7 7,1 5,7 6,8 7,6 7,9 4 2 7 4 SW 1010,8 16 0 0,0
16.12.2019 00:00:00 8,5 7,7 6,7 7,0 7,7 7,9 4 2 12 6 NE 1011,0 8 0 0,0
15.12.2019 23:00:00 9,6 7,4 7,7 7,2 7,8 7,9 7 4 11 6 SSE 1011,0 70 0 0,0
15.12.2019 22:00:00 8,0 7,7 6,6 7,3 7,9 7,9 3 1 6 3 WSW 1011,7 30 0 0,0
15.12.2019 21:00:00 8,2 7,9 6,1 7,7 8,0 7,9 0 0 7 4 N 1011,6 5 0 0,0
15.12.2019 20:00:00 9,4 7,6 7,5 8,3 8,0 7,9 6 3 9 5 S 1011,4 70 0 0,2
15.12.2019 19:00:00 10,1 8,1 8,7 8,7 8,0 7,9 7 4 18 10 S 1011,6 47 0 0,2
15.12.2019 18:00:00 10,7 8,1 9,2 9,0 8,0 7,9 14 7 24 13 SSW 1011,2 16 0 0,4
15.12.2019 17:00:00 11,6 8,2 10,5 9,3 8,0 7,9 16 9 36 19 SW 1010,4 47 0 0,0
15.12.2019 16:00:00 12,4 8,0 11,6 9,5 7,9 7,9 23 12 37 20 SSW 1009,6 70 0 0,0
15.12.2019 15:00:00 12,7 7,9 11,8 9,6 7,8 7,9 25 13 44 24 SW 1008,8 70 0 0,0
15.12.2019 14:00:00 13,1 7,5 12,0 9,6 7,7 7,9 26 14 54 29 SW 1008,3 70 0 0,0
15.12.2019 13:00:00 13,7 7,4 12,8 9,7 7,6 7,9 19 10 44 24 WSW 1007,7 70 0 0,0
15.12.2019 12:00:00 13,8 7,0 12,9 9,6 7,4 7,9 24 13 50 27 SW 1007,3 70 0 0,0
15.12.2019 11:00:00 14,1 6,5 13,1 9,2 7,3 7,9 31 17 56 30 SW 1007,1 70 0 0,0
15.12.2019 10:00:00 14,0 6,0 12,6 8,9 7,2 7,9 26 14 45 24 SW 1006,2 70 0 0,0
15.12.2019 09:00:00 13,9 6,0 12,3 8,6 7,2 7,9 23 12 42 23 SW 1005,7 70 0 0,0
15.12.2019 08:00:00 14,0 6,4 12,4 8,7 7,1 7,9 29 16 53 29 SSW 1005,0 70 0 0,0
15.12.2019 07:00:00 13,8 6,7 12,4 8,7 6,9 7,9 26 14 59 32 SSW 1005,1 70 0 0,0
15.12.2019 06:00:00 13,6 7,1 12,1 8,6 6,8 7,9 35 19 61 33 SSW 1004,5 70 0 0,0
15.12.2019 05:00:00 13,3 7,9 12,1 8,8 6,6 7,9 36 19 61 33 SSW 1004,6 70 0 0,0
15.12.2019 04:00:00 13,0 8,2 11,8 8,5 6,4 7,9 31 17 52 28 SW 1004,7 70 0 0,0
15.12.2019 03:00:00 11,8 8,3 10,6 7,9 6,3 7,9 28 15 46 25 SSW 1004,9 70 0 0,4
15.12.2019 02:00:00 9,3 8,0 8,3 7,2 6,2 7,9 10 5 14 7 S 1004,9 33 0 1,4
15.12.2019 01:00:00 9,4 7,9 7,9 7,2 6,1 7,9 3 2 23 13 E 1005,5 10 0 1,0
15.12.2019 00:00:00 10,9 7,3 8,8 7,5 6,0 7,9 14 7 41 22 SW 1006,3 11 0 0,2
14.12.2019 23:00:00 11,9 6,1 10,8 7,3 5,9 7,9 26 14 48 26 SW 1006,8 70 0 0,0
14.12.2019 22:00:00 11,3 6,4 10,1 6,9 5,8 7,9 19 11 44 24 SSW 1006,8 70 0 0,0
14.12.2019 21:00:00 10,8 6,2 9,7 6,7 5,7 7,9 27 15 61 33 SSW 1007,4 70 0 0,0
14.12.2019 20:00:00 10,8 5,1 9,4 6,2 5,7 7,9 31 17 48 26 SSW 1007,2 70 0 0,0
14.12.2019 19:00:00 10,6 3,6 9,2 5,6 5,7 7,9 22 12 47 25 SSW 1006,3 70 0 0,0
14.12.2019 18:00:00 10,6 0,8 8,7 5,3 5,7 7,9 27 14 58 32 SSW 1005,9 70 0 0,0
14.12.2019 17:00:00 10,6 -1,3 8,7 5,6 5,7 7,9 27 15 46 25 SSW 1005,3 70 0 0,0
14.12.2019 16:00:00 10,6 -1,0 9,0 6,2 5,7 7,9 31 17 48 26 SSW 1005,0 70 9 0,0
14.12.2019 15:00:00 10,0 -0,2 9,0 6,5 5,6 7,9 26 14 50 27 SSW 1004,7 62 0 0,0
14.12.2019 14:00:00 9,5 1,1 8,7 7,6 5,4 7,9 30 16 47 26 SSW 1005,4 51 45 0,0
14.12.2019 13:00:00 9,3 2,6 9,4 7,4 5,2 7,9 18 10 48 26 SSW 1004,6 46 25 0,0
14.12.2019 12:00:00 9,0 3,6 6,6 6,2 5,1 7,9 26 14 45 24 WSW 1003,4 70 0 0,3
14.12.2019 11:00:00 8,7 4,4 8,0 5,8 5,0 7,9 32 18 45 24 SSW 1001,4 59 0 0,0
14.12.2019 10:00:00 8,9 3,2 7,8 5,4 4,9 7,9 14 7 43 23 SSW 1000,2 70 0 0,0
14.12.2019 09:00:00 9,8 2,1 8,0 5,1 4,8 7,9 21 11 46 25 WSW 999,1 69 0 0,0
14.12.2019 08:00:00 9,7 3,5 7,6 5,4 4,7 7,9 16 9 35 19 W 996,5 70 0 0,0
14.12.2019 07:00:00 9,1 6,3 7,9 5,8 4,5 7,9 22 12 49 26 WSW 994,1 70 0 0,0
14.12.2019 06:00:00 9,0 5,3 8,2 5,2 4,4 7,9 34 18 53 28 SW 991,9 70 0 0,0
14.12.2019 05:00:00 7,8 3,2 6,8 4,2 4,4 7,9 25 13 44 24 SW 991,9 70 0 0,1
14.12.2019 04:00:00 6,8 2,0 5,8 3,9 4,4 7,9 24 13 46 25 SSW 993,1 70 0 0,0
14.12.2019 03:00:00 6,0 0,8 5,0 3,7 4,4 7,9 24 13 48 26 S 994,3 59 0 0,1
14.12.2019 02:00:00 6,7 0,3 4,9 3,5 4,4 7,9 20 11 44 24 SSW 994,9 16 0 0,0
14.12.2019 01:00:00 6,1 0,3 4,8 3,3 4,5 7,9 27 14 45 25 SSW 994,6 57 0 0,0
14.12.2019 00:00:00 6,1 0,3 5,1 3,4 4,5 8,0 29 15 49 26 SSW 997,0 62 0 0,0
13.12.2019 23:00:00 5,8 0,5 4,3 3,5 4,6 8,0 30 16 49 26 SSW 996,8 53 0 0,0
13.12.2019 22:00:00 6,0 1,0 5,2 3,9 4,6 8,0 31 17 50 27 SSW 996,6 53 0 0,0
13.12.2019 21:00:00 6,3 0,9 5,4 4,0 4,6 8,0 29 16 50 27 SSW 995,5 57 0 0,0
13.12.2019 20:00:00 6,3 1,4 5,4 4,1 4,6 8,0 29 16 50 27 SSW 994,7 54 0 0,0
13.12.2019 19:00:00 6,5 1,4 5,6 4,2 4,6 8,0 27 14 45 25 SW 993,2 50 0 0,0
13.12.2019 18:00:00 6,0 2,4 4,4 4,4 4,6 8,0 26 14 48 26 SSW 991,8 30 0 0,1
13.12.2019 17:00:00 6,1 2,4 5,0 4,6 4,6 8,0 27 15 46 25 SW 990,5 33 0 0,0
13.12.2019 16:00:00 6,2 2,6 5,0 4,8 4,5 8,0 26 14 48 26 SSW 989,2 23 0 0,0
13.12.2019 15:00:00 6,0 2,7 5,7 5,2 4,4 8,0 30 16 51 28 SSW 988,0 66 0 0,0
13.12.2019 14:00:00 5,9 2,7 5,7 5,1 4,3 8,0 29 15 47 26 SW 987,1 70 0 0,0
13.12.2019 13:00:00 6,4 3,5 5,8 5,1 4,2 8,1 25 13 44 24 SW 986,0 51 0 1,7
13.12.2019 12:00:00 5,9 3,9 4,9 4,8 4,1 8,1 29 16 43 23 SW 985,4 4,9 0 3,0
13.12.2019 11:00:00 6,4 3,3 5,0 4,7 3,9 8,1 16 9 50 27 WSW 984,2 12 0 0,2
13.12.2019 10:00:00 6,6 3,6 5,8 4,6 3,7 8,1 34 18 51 28 SW 982,2 70 0 0,4
13.12.2019 09:00:00 6,6 4,4 5,3 4,3 3,6 8,1 23 13 36 19 SSW 980,1 6 0 3,0
13.12.2019 08:00:00 8,5 2,8 6,7 4,1 3,4 8,1 24 13 47 25 SSW 978,6 33 0 0,1
13.12.2019 07:00:00 6,4 2,9 4,5 3,6 3,2 8,1 16 8 48 26 S 979,8 33 0 0,9
13.12.2019 06:00:00 8,1 2,0 6,3 3,5 3,0 8,1 24 13 44 24 SSW 981,7 63 0 0,0
13.12.2019 05:00:00 7,9 2,1 6,7 2,9 2,9 8,1 29 16 43 23 S 983,5 70 0 0,0
13.12.2019 04:00:00 7,4 2,2 6,0 1,6 2,8 8,1 22 12 43 23 SSW 985,7 70 0 0,0
13.12.2019 03:00:00 6,8 1,7 5,0 0,6 2,9 8,1 26 14 41 22 SSW 987,3 70 0 0,0
13.12.2019 02:00:00 2,1 -0,5 0,6 0,6 3,0 8,1 3 2 8 4 NW 989,2 50 0 0,0
13.12.2019 01:00:00 1,2 -1,6 0,2 0,6 3,1 8,1 4 2 16 8 W 991,1 28 0 0,0
13.12.2019 00:00:00 0,5 -2,3 -0,6 0,6 3,2 8,1 5 3 9 5 N 992,3 41 0 0,0
12.12.2019 23:00:00 -1,2 -3,4 -2,2 0,6 3,3 8,2 4 2 10 5 S 993,8 38 0 0,0
12.12.2019 22:00:00 -2,1 -3,5 -4,3 0,6 3,4 8,2 2 1 5 3 NW 995,8 56 0 0,0
12.12.2019 21:00:00 -1,7 -3,3 -4,9 0,7 3,6 8,2 0 0 12 7 N 997,7 49 0 0,0
12.12.2019 20:00:00 -0,4 -2,5 -3,5 0,8 3,8 8,2 4 2 12 6 SSW 998,8 60 0 0,0
12.12.2019 19:00:00 0,8 -2,8 -1,9 0,9 4,1 8,2 10 5 15 8 S 1000,1 70 0 0,0
12.12.2019 18:00:00 1,0 -2,9 -3,1 1,0 4,3 8,2 8 4 11 6 SSE 1001,9 70 0 0,0
12.12.2019 17:00:00 2,8 -1,7 -1,0 2,4 4,4 8,2 9 5 21 11 S 1003,1 70 1 0,0
12.12.2019 16:00:00 5,0 -0,6 5,0 4,1 4,4 8,2 14 7 32 17 SSW 1004,2 70 6 0,0
12.12.2019 15:00:00 5,0 -0,6 4,7 4,5 4,3 8,2 22 12 33 18 SW 1005,2 70 5 0,0
12.12.2019 14:00:00 4,9 0,5 4,9 5,2 4,1 8,2 23 12 40 22 SW 1006,2 70 40 0,0
12.12.2019 13:00:00 5,1 0,8 5,8 5,0 3,9 8,2 21 11 39 21 SW 1007,3 67 25 0,0
12.12.2019 12:00:00 4,4 0,7 4,6 4,0 3,8 8,2 27 15 45 24 SSW 1008,2 70 0 0,0
12.12.2019 11:00:00 4,1 0,8 4,4 3,8 3,7 8,2 24 13 41 22 SSW 1008,9 70 0 0,0
12.12.2019 10:00:00 3,8 1,0 3,5 3,0 3,7 8,3 26 14 43 23 SW 1009,0 70 0 0,0
12.12.2019 09:00:00 4,0 1,1 3,5 2,8 3,7 8,3 23 12 39 21 SSW 1008,6 70 0 0,0
12.12.2019 08:00:00 4,2 1,3 3,2 2,9 3,6 8,3 23 13 44 24 SSW 1008,2 40 0 0,0
12.12.2019 07:00:00 4,1 1,3 3,1 2,9 3,6 8,3 21 11 43 23 SSW 1007,8 70 0 1,0
12.12.2019 06:00:00 3,9 1,7 2,9 3,0 3,5 8,3 24 13 43 23 SSW 1007,7 8 0 0,6
12.12.2019 05:00:00 5,3 1,2 3,8 2,8 3,5 8,3 19 10 29 16 SSW 1007,3 29 0 0,0
12.12.2019 04:00:00 5,2 1,2 3,6 2,4 3,5 8,3 11 6 23 13 S 1007,4 53 0 0,0
12.12.2019 03:00:00 5,1 1,3 3,3 2,4 3,5 8,3 11 6 21 11 S 1008,0 51 0 0,0
12.12.2019 02:00:00 5,1 1,4 3,7 2,7 3,5 8,3 16 8 24 13 S 1008,6 60 0 0,0
12.12.2019 01:00:00 5,0 1,5 3,6 2,6 3,5 8,3 16 9 30 16 SSW 1009,1 67 0 0,0
12.12.2019 00:00:00 5,3 1,8 4,0 2,7 3,4 8,3 17 9 30 16 SSW 1009,8 68 0 0,0
11.12.2019 23:00:00 5,0 2,0 4,0 2,7 3,4 8,3 17 9 32 18 SSW 1010,3 63 0 0,0
11.12.2019 22:00:00 5,0 2,3 3,5 2,9 3,3 8,3 22 12 36 19 SSW 1010,7 66 0 0,2
11.12.2019 21:00:00 4,6 2,5 3,6 2,9 3,2 8,3 22 12 39 21 SSW 1011,3 11 0 0,1
11.12.2019 20:00:00 4,6 2,0 3,6 2,8 3,0 8,3 26 14 40 22 SSW 1011,9 70 0 0,1
11.12.2019 19:00:00 4,2 1,9 3,1 2,5 2,9 8,3 26 14 41 22 SSW 1011,9 17 0 1,4
11.12.2019 18:00:00 3,8 1,7 2,8 2,2 2,8 8,3 27 15 48 26 SSW 1011,6 10 0 2,7
11.12.2019 17:00:00 4,7 0,9 3,0 1,6 2,7 8,3 26 14 42 23 SSW 1010,9 14 0 0,5
11.12.2019 16:00:00 5,1 0,5 3,2 0,6 2,7 8,3 11 6 19 10 SW 1010,2 45 0 0,0
11.12.2019 15:00:00 4,7 3,0 3,7 0,4 2,8 8,3 5 3 8 5 SW 1010,0 20 0 0,0
11.12.2019 14:00:00 3,3 2,1 2,9 0,3 2,8 8,3 4 2 5 3 N 1010,7 15 0 0,6
11.12.2019 13:00:00 3,3 1,1 2,4 0,3 2,9 8,3 6 3 11 6 NW 1012,0 7 0 0,2
11.12.2019 12:00:00 3,1 -1,1 1,7 0,2 2,9 8,3 4 2 14 8 NE 1013,2 34 0 0,0
11.12.2019 11:00:00 2,1 -0,4 1,5 0,2 3,0 8,3 5 3 8 4 N 1014,5 31 0 0,0
11.12.2019 10:00:00 0,8 -1,2 0,0 0,2 3,0 8,3 4 2 7 4 N 1015,3 24 0 0,0
11.12.2019 09:00:00 -0,5 -2,3 -1,1 0,2 3,1 8,3 2 1 10 5 E 1016,0 15 0 0,0
11.12.2019 08:00:00 -1,3 -2,4 -1,3 0,2 3,2 8,3 3 2 5 3 WNW 1016,6 26 0 0,0
11.12.2019 07:00:00 -2,0 -3,3 -2,3 0,2 3,3 8,3 3 2 6 3 NNE 1017,4 26 0 0,0
11.12.2019 06:00:00 -3,0 -3,8 -5,2 0,2 3,4 8,3 2 1 5 3 ENE 1018,4 13 0 0,0
11.12.2019 05:00:00 -2,2 -3,3 -3,9 0,3 3,5 8,3 4 2 6 3 S 1018,5 25 0 0,0
11.12.2019 04:00:00 -2,5 -3,7 -4,6 0,4 3,6 8,3 5 3 7 4 S 1019,7 21 0 0,0
11.12.2019 03:00:00 -3,6 -4,6 -5,3 0,5 3,7 8,3 5 3 8 5 N 1020,4 13 0 0,0
11.12.2019 02:00:00 -2,6 -3,2 -5,9 0,6 3,9 8,3 3 2 8 4 S 1021,6 19 0 0,0
11.12.2019 01:00:00 -2,9 -3,6 -5,6 0,7 4,0 8,3 0 0 4 2 N 1022,4 12 0 0,0
11.12.2019 00:00:00 -2,0 -3,2 -5,1 0,8 4,2 8,3 4 2 9 5 NNW 1023,4 13 0 0,0
10.12.2019 23:00:00 1,4 -2,7 -2,1 0,9 4,4 8,3 7 4 17 9 SSE 1023,8 49 0 0,0
10.12.2019 22:00:00 -1,1 -2,7 -3,8 1,0 4,6 8,3 4 2 8 4 S 1025,0 24 0 0,0
10.12.2019 21:00:00 -1,0 -2,7 -4,3 1,1 4,9 8,3 3 2 5 3 N 1025,3 14 0 0,0
10.12.2019 20:00:00 -0,7 -2,2 -4,1 1,3 5,2 8,3 0 0 9 5 N 1025,7 34 0 0,0
10.12.2019 19:00:00 0,8 -1,9 -2,3 1,5 5,5 8,3 4 2 16 8 SE 1026,2 46 0 0,0
10.12.2019 18:00:00 2,6 -1,1 -2,0 2,5 5,8 8,3 5 3 8 5 SSE 1026,2 42 0 0,0
10.12.2019 17:00:00 3,4 -1,0 -1,8 4,0 5,9 8,3 3 2 17 9 SW 1026,8 36 0 0,0
10.12.2019 16:00:00 5,9 -1,2 4,9 6,0 5,9 8,3 12 7 16 8 S 1026,8 45 43 0,0
10.12.2019 15:00:00 6,7 -2,0 7,6 7,8 5,6 8,3 7 4 14 7 SW 1028,0 55 60 0,0
10.12.2019 14:00:00 6,7 -1,1 9,6 8,4 5,2 8,3 6 4 12 6 W 1028,6 46 60 0,0
10.12.2019 13:00:00 6,0 -0,1 8,4 7,6 4,9 8,2 6 3 16 9 WSW 1029,1 35 60 0,0
10.12.2019 12:00:00 5,4 0,9 7,1 6,2 4,6 8,2 12 6 20 11 WSW 1030,4 28 57 0,0
10.12.2019 11:00:00 3,9 0,2 4,4 4,1 4,5 8,2 7 4 11 6 W 1030,8 31 6 0,0
10.12.2019 10:00:00 3,3 0,9 2,4 2,3 4,6 8,2 4 2 10 5 SW 1030,4 28 0 0,0
10.12.2019 09:00:00 1,2 0,0 -0,3 1,4 4,8 8,2 2 1 4 2 SSW 1030,3 21 0 0,0
10.12.2019 08:00:00 2,9 0,6 0,0 1,8 5,1 8,2 6 3 11 6 E 1029,2 25 0 0,0
10.12.2019 07:00:00 1,5 0,8 -0,8 1,9 5,3 8,2 0 0 4 2 N 1029,0 20 0 0,0
10.12.2019 06:00:00 1,4 0,2 -1,9 2,2 5,5 8,2 2 1 9 5 E 1028,2 23 0 0,0
10.12.2019 05:00:00 2,3 0,4 -0,9 2,3 5,8 8,2 7 4 9 5 SE 1027,4 30 0 0,0
10.12.2019 04:00:00 3,4 0,2 -1,0 3,6 5,9 8,2 4 2 12 7 NNE 1026,0 37 0 0,0
10.12.2019 03:00:00 5,0 -0,1 3,6 4,3 6,0 8,2 10 5 27 15 N 1025,3 42 0 0,0
10.12.2019 02:00:00 5,4 0,9 4,3 4,7 6,1 8,2 15 8 26 14 NNW 1024,0 45 0 0,0
10.12.2019 01:00:00 5,5 2,2 4,1 4,9 6,2 8,2 13 7 39 21 NNW 1022,3 61 0 0,1

tt = Température de l'air
td = dewpoint
tt 5cm = Température de l'air 5cm
tt -5cm = Température de l'air -5cm
tt -20cm = Température de l'air -20cm
tt -100cm = Température de l'air -100cm
ff = Vitesse du vent
fx = gusts
dd = Direction du vent
ppp = reduced air pressure
vv = visibility
sd = Ensoleillement
rr = Quantités de précipitations

stations d'obs. à proximité